Location: Sigmaringen
(48.0900°N, 9.2120°E)
Time: 13:25:19
(UTC+01:00)

ISS - Pass Details

Date: 08 January 2018
Orbit: 402 x 407 km, 51.6° (Epoch: 22 January)

Event Time Altitude Azimuth Distance (km) Brightness Sun altitude
Exits shadow 06:38:40 31° 311° (NW) 741 -3.0 -14.9°
Maximum altitude 06:39:56 53° 13° (NNE) 507 -3.4 -14.7°
Drops below altitude 10° 06:43:10 10° 92° (E) 1,469 0.3 -14.2°
Sets 06:45:17 0° 97° (E) 2,329 1.8 -13.9°
